Wind_Speed
110 115 118 120 121 120 120 119 119 119 118 117 116 116 115 116 116 116 117 116 114 112 111 110 110 110 110 109 108 107 106 105 103 102 101 99 97 95 95 95 94 93 90 88 87 87 87 86 85 84 82 79 76 74 73 72 71 69 70 68 63 56 50 48 49 50 53 56 58 62 66 68 68 68
95 103 109 115 118 120 121 121 121 122 121 120 119 118 117 117 117 118 118 118 116 114 113 113 112 111 111 111 111 110 109 107 106 105 104 102 99 98 97 97 97 96 95 92 89 88 89 89 87 86 86 83 80 77 76 75 74 73 72 72 72 67 60 55 51 50 52 52 53 58 61 64 67 68
77 85 94 102 108 113 117 120 121 122 123 123 122 121 120 119 119 119 119 119 118 116 116 115 114 113 112 112 113 113 111 110 108 108 106 104 102 100 99 99 99 99 98 96 93 90 90 90 89 88 87 86 84 81 79 78 77 75 75 74 75 74 71 66 62 59 57 52 51 56 59 58 61 64
59 67 75 84 92 100 106 112 116 119 121 123 123 123 123 122 122 122 122 121 119 117 117 117 116 115 115 114 114 114 113 112 111 110 109 107 105 103 102 101 100 101 100 99 98 95 93 92 91 90 89 88 87 85 82 81 79 78 77 76 76 77 76 75 73 69 64 58 55 59 62 59 57 58
41 48 56 64 73 82 90 97 104 109 114 117 120 121 122 123 123 124 124 124 122 120 119 120 119 118 117 117 116 115 115 114 113 112 111 110 108 106 105 103 102 102 102 101 100 98 97 95 94 92 91 89 89 88 85 83 82 81 80 79 78 79 78 78 78 76 72 67 65 67 69 68 64 60
25 31 37 44 52 61 69 77 86 93 100 106 110 113 116 119 121 123 124 125 125 124 123 122 122 121 121 120 119 117 116 116 115 115 114 112 111 109 107 106 104 102 102 103 102 100 99 97 96 95 94 92 90 90 88 86 85 83 83 82 81 80 80 79 80 78 74 72 71 72 72 74 75 69
15 18 22 27 33 40 47 55 63 71 79 86 93 98 103 108 111 115 118 121 124 125 124 124 124 124 124 123 122 121 120 118 117 117 117 115 114 112 110 108 106 104 103 103 103 102 100 98 98 97 96 95 92 91 90 89 87 86 85 84 83 82 81 81 81 79 76 73 72 73 72 73 77 75
12 12 14 17 20 25 30 35 41 48 55 62 70 77 85 92 97 101 106 111 116 119 121 122 123 124 125 125 125 124 124 122 121 120 119 118 117 116 114 112 109 107 105 104 104 104 102 100 99 98 98 97 95 93 92 91 90 88 87 86 85 84 83 83 82 81 80 77 74 72 71 72 76 78
12 12 12 12 14 16 18 22 26 31 36 41 48 55 63 71 78 84 90 96 102 107 111 114 116 119 122 124 125 126 126 125 125 124 122 121 120 119 118 115 112 110 108 107 106 104 104 102 100 99 99 98 97 95 94 93 92 90 90 89 87 86 85 84 84 83 82 81 77 72 69 70 75 79
12 12 12 13 13 13 13 15 17 20 24 28 33 38 44 50 57 64 71 78 85 92 97 102 105 107 112 116 119 121 123 125 126 127 126 125 124 123 122 119 116 114 112 111 109 107 106 104 103 101 100 99 98 97 96 95 94 93 92 91 90 88 87 86 85 84 83 83 82 79 74 71 70 74
9 10 11 12 13 13 13 14 15 16 18 21 24 28 32 38 43 49 55 61 69 76 82 88 91 94 98 103 106 110 114 118 121 124 125 125 125 125 125 123 120 118 116 114 113 111 109 107 105 104 102 100 99 98 97 97 96 95 94 93 92 90 89 88 87 86 85 84 84 84 82 79 75 74
7 8 9 10 11 12 13 15 16 17 18 19 21 23 25 29 33 37 42 47 53 59 66 71 76 80 84 89 93 97 102 106 111 115 117 118 120 122 123 124 124 122 119 117 115 114 113 111 110 108 105 103 101 100 98 98 97 97 95 94 93 92 91 90 88 87 86 86 86 85 84 84 82 80
6 7 7 8 8 9 11 13 15 16 17 18 19 20 21 23 26 28 31 35 39 44 49 54 59 64 70 75 80 84 89 93 97 101 104 107 110 112 115 118 121 121 120 118 117 115 114 113 112 111 109 106 104 102 100 99 98 98 97 95 95 94 93 91 90 89 88 87 87 86 86 85 84 83
6 6 6 6 7 7 8 10 12 14 15 16 17 18 19 20 21 23 24 26 28 32 36 38 42 47 52 58 64 70 75 79 83 87 90 94 98 102 105 109 113 115 115 115 114 114 113 113 112 113 112 110 107 105 102 101 99 98 98 97 96 95 94 93 92 91 90 88 88 87 87 87 86 85
7 7 6 6 6 6 7 8 9 11 12 13 15 16 18 18 19 20 21 21 22 25 28 29 29 32 37 41 46 53 58 63 68 73 76 81 86 90 94 98 102 105 106 107 107 108 109 109 109 110 111 111 110 108 106 103 101 99 99 98 96 94 94 94 93 92 91 90 89 88 88 88 87 87
8 8 7 7 6 6 6 7 8 9 10 11 12 14 16 17 17 18 19 19 20 22 24 25 25 27 29 31 33 38 44 49 53 58 62 67 73 78 83 87 91 94 96 97 98 99 101 103 104 106 108 109 110 109 108 106 105 102 101 100 97 93 91 91 91 90 90 90 90 89 88 88 88 88
7 7 7 7 6 6 6 6 7 8 9 10 11 13 14 15 17 18 18 19 20 22 24 26 26 27 29 31 30 29 33 38 42 46 50 54 59 64 70 75 79 83 86 88 90 91 93 96 99 101 104 106 107 108 108 108 107 106 104 102 100 96 92 90 89 87 87 87 88 89 88 87 87 87
6 6 6 6 6 6 5 6 6 7 9 9 10 11 12 13 15 17 18 19 21 23 25 27 28 28 30 32 32 30 30 33 35 37 40 43 45 49 56 63 68 73 77 79 82 85 87 89 94 98 101 103 105 107 107 108 108 108 106 105 104 102 98 95 92 89 87 86 85 84 84 85 85 85
5 5 5 5 5 5 5 6 6 7 7 8 9 10 11 12 14 15 17 19 21 23 25 27 30 31 33 33 34 35 35 34 34 34 34 35 35 36 42 50 57 63 67 70 74 77 81 84 89 94 98 103 106 107 108 108 109 109 108 106 106 104 102 100 95 92 91 89 86 82 81 81 80 80
7 6 5 5 4 5 5 5 6 6 6 7 8 9 10 11 13 14 17 19 21 22 23 26 29 33 35 34 34 37 38 36 36 37 35 34 33 31 33 38 44 50 56 61 66 70 75 79 84 91 97 102 106 108 109 109 109 109 108 107 105 104 104 102 98 94 93 94 92 87 84 83 81 78
9 9 8 7 6 6 5 5 5 5 5 5 6 7 8 10 11 13 15 18 20 21 23 25 28 31 33 34 34 37 39 39 38 38 37 36 35 33 32 34 36 40 45 51 57 63 69 74 79 86 93 101 106 108 108 109 108 108 108 107 105 103 102 102 101 99 95 94 95 94 90 87 85 82
10 9 9 8 8 8 7 7 7 6 6 5 6 6 7 8 9 11 14 15 18 20 22 24 26 28 30 32 33 35 38 40 40 39 39 38 36 35 34 34 35 37 40 44 48 53 60 67 73 79 87 96 104 108 107 107 107 107 106 106 105 104 101 100 100 101 99 95 94 96 95 93 90 87
10 10 9 9 9 8 9 9 9 8 8 8 8 7 7 8 9 11 13 14 16 19 20 22 24 26 28 30 32 34 36 38 39 40 40 39 40 38 36 36 37 37 38 41 43 45 48 54 63 71 79 87 97 104 106 104 104 105 105 105 105 105 104 100 96 97 100 100 98 97 97 97 96 93
11 11 10 10 10 10 10 10 10 10 10 10 10 10 10 10 11 12 13 14 16 18 19 20 22 24 26 28 31 33 35 37 38 40 41 41 44 43 39 39 40 40 41 42 43 43 43 44 50 59 68 78 87 96 102 102 101 101 102 103 104 104 106 105 101 96 95 97 100 101 99 99 100 100
12 12 12 12 12 12 12 12 12 13 12 12 12 12 13 14 14 14 14 15 16 17 18 19 20 22 24 26 28 30 33 34 36 38 40 43 47 48 44 42 43 43 43 44 45 46 45 43 43 47 55 65 76 87 95 99 100 100 99 101 102 103 104 106 107 104 98 94 95 99 101 101 101 102
14 14 14 14 13 14 14 14 15 15 15 15 15 15 16 17 17 17 17 18 18 17 18 19 19 20 22 23 24 26 29 31 32 34 37 41 49 52 49 46 46 45 45 46 48 48 47 45 44 45 47 52 62 74 85 92 97 99 99 99 99 101 102 104 106 107 107 102 97 97 99 100 99 99
14 14 14 14 14 14 14 15 15 16 16 16 16 17 18 18 19 20 20 20 20 19 19 19 18 19 20 21 22 23 25 27 30 31 33 37 46 54 53 49 48 49 48 48 50 51 51 49 46 46 48 49 52 60 72 83 90 95 97 98 98 99 100 101 103 106 108 109 106 102 100 100 100 99
13 13 12 12 12 12 12 13 14 14 15 16 17 18 18 19 21 22 22 22 23 22 21 20 19 19 19 20 20 20 21 23 27 29 29 31 38 50 54 52 50 50 51 51 51 52 53 54 51 48 48 50 52 54 60 70 81 88 92 95 96 97 97 98 100 102 105 109 111 110 106 104 103 101
13 12 12 12 11 11 12 12 13 14 15 16 17 18 19 21 23 25 26 27 27 26 25 23 22 20 20 20 20 20 19 20 23 25 26 27 29 38 49 54 53 52 51 52 53 53 52 54 56 54 51 51 53 54 56 60 69 78 86 90 92 94 95 96 96 98 100 103 107 110 109 107 105 104
13 12 12 12 12 12 12 13 13 14 15 15 16 18 20 23 26 27 28 28 28 29 29 27 25 23 22 21 20 20 20 20 20 20 22 24 24 27 37 47 54 55 54 53 53 54 53 53 55 58 57 54 52 54 55 57 60 65 73 81 86 90 92 93 94 95 96 98 100 103 105 105 104 104
13 12 12 12 13 13 13 14 14 14 15 16 16 18 21 24 24 23 24 25 26 27 29 29 27 25 24 22 20 20 19 19 19 18 19 20 21 22 26 33 42 50 55 56 55 55 54 54 55 56 58 59 57 55 55 56 58 59 62 67 74 81 86 90 92 92 93 95 95 97 99 100 102 102
13 13 12 13 13 14 14 14 15 15 16 16 17 19 22 23 20 17 17 19 21 23 25 28 28 27 25 22 20 20 19 18 17 17 16 17 18 20 22 25 29 36 44 51 55 57 57 57 56 55 55 58 60 61 59 58 58 60 61 61 64 68 74 80 85 89 92 93 94 94 95 96 98 99
14 13 13 13 14 14 14 14 15 16 16 17 17 19 22 22 17 12 12 14 17 19 22 25 27 27 26 24 22 20 18 16 16 16 16 17 17 17 19 21 24 26 30 36 43 50 54 56 57 57 55 55 57 61 63 64 63 62 62 62 63 64 66 70 74 80 85 89 91 93 94 94 95 96
14 14 13 13 14 15 15 14 14 15 16 17 17 18 22 22 16 8 6 9 12 15 18 22 25 27 26 24 23 21 18 16 16 15 15 16 16 16 17 18 20 22 24 26 29 33 37 41 45 48 50 50 51 54 59 64 66 66 64 64 64 65 66 67 69 71 75 79 83 87 89 92 94 95
14 14 13 13 14 15 15 15 14 14 15 16 17 17 20 22 18 10 3 3 7 12 16 20 23 25 26 25 24 22 20 19 18 16 15 15 15 15 16 17 18 20 21 23 24 25 26 27 30 34 37 40 43 46 50 55 61 65 66 66 66 66 66 67 68 68 69 70 73 76 79 82 86 89
14 14 13 13 13 14 14 14 14 13 14 15 16 16 17 20 20 14 7 1 3 8 13 18 21 24 25 25 24 22 21 21 20 18 17 16 15 15 15 16 16 18 19 21 22 22 22 23 24 25 27 29 32 35 39 44 49 54 59 63 66 67 67 67 68 68 68 68 69 71 73 75 78 81
15 15 14 13 12 12 13 13 13 13 13 13 14 15 16 17 19 18 13 6 2 5 9 14 18 21 22 22 22 21 21 21 20 19 18 18 17 16 16 15 16 16 17 18 19 19 20 20 21 22 22 23 24 26 29 33 37 42 46 51 56 60 62 64 64 65 66 66 67 68 70 72 74 77
16 15 13 12 12 12 12 12 12 12 12 12 13 14 14 14 15 17 16 13 7 4 6 10 13 16 19 20 21 21 21 21 20 20 19 19 18 17 17 17 17 17 18 18 18 18 19 19 19 20 21 21 22 23 25 27 29 32 35 38 42 46 49 52 54 56 59 60 61 63 65 67 69 72
16 15 13 12 11 11 11 11 11 10 10 11 11 12 13 13 13 14 15 15 13 9 6 6 9 12 14 16 18 19 20 20 20 20 20 20 19 19 19 19 19 19 19 19 19 19 19 19 20 20 20 20 20 22 23 24 25 27 29 31 33 36 39 41 44 47 50 53 56 58 61 63 65 68
15 14 13 11 10 10 9 9 9 9 9 9 9 10 10 11 11 12 12 13 13 13 11 8 7 8 11 13 15 16 18 19 20 20 21 21 21 21 21 21 21 21 20 20 20 20 20 21 21 21 21 21 21 22 23 24 25 27 29 31 32 34 36 38 40 42 45 47 50 53 55 58 60 63
14 13 12 11 10 9 9 8 8 7 7 7 7 8 8 9 9 10 10 11 11 11 12 11 10 8 8 9 11 13 15 17 18 19 21 21 22 22 22 22 22 22 22 21 21 21 22 22 22 23 23 23 23 24 25 26 27 29 31 33 34 35 37 39 41 43 45 47 49 50 52 54 57 59
14 13 11 11 10 9 8 7 7 6 5 5 5 6 6 7 8 8 9 9 10 10 10 10 10 10 10 9 9 10 11 13 15 17 19 20 22 23 23 23 23 23 23 23 23 23 24 24 24 24 24 24 25 25 26 27 29 30 31 32 33 34 35 36 39 41 43 45 47 48 50 52 54 56
14 13 12 11 10 9 8 7 6 5 4 4 4 4 4 4 5 6 7 7 8 8 9 9 9 9 9 9 9 9 9 10 11 13 15 17 18 20 21 21 22 22 22 23 23 23 24 23 23 23 22 22 23 24 25 26 28 29 30 31 31 32 32 33 34 36 38 39 41 42 44 46 48 50
14 12 12 12 11 9 8 7 6 6 5 4 3 3 2 2 2 3 4 5 5 6 7 7 8 8 8 8 8 9 9 9 10 11 12 13 14 15 16 17 17 18 18 19 19 20 20 19 19 18 19 19 20 21 22 23 25 26 27 28 29 30 32 33 34 36 37 38 39 41 43 45 46 48
14 12 12 12 11 10 9 8 7 7 6 5 4 4 3 2 1 0 1 2 3 4 5 5 5 6 6 6 6 6 7 8 8 9 9 10 11 11 12 13 13 13 14 15 16 16 16 15 15 15 15 16 17 18 19 20 22 24 25 27 28 30 32 34 36 38 39 40 41 43 45 46 47 49
Wind_Direction
243 243 243 243 243 242 242 242 242 241 240 240 240 240 240 240 240 240 240 240 239 239 238 239 240 241 242 241 241 241 241 241 241 240 239 238 237 236 237 238 237 237 236 235 237 238 238 238 239 239 237 236 236 236 236 236 236 236 234 231 228 228 232 235 237 241 245 245 244 242 241 241 241 241
243 242 242 243 243 243 243 243 243 243 243 242 241 241 241 241 241 241 241 241 240 240 240 239 239 240 241 242 242 241 241 240 240 240 240 239 238 237 237 238 238 238 237 236 236 237 238 238 238 239 238 237 236 236 236 236 236 236 235 234 231 228 228 230 231 234 239 243 245 244 242 241 241 241
243 242 242 242 242 242 243 243 243 244 244 244 243 243 243 243 243 242 242 241 241 241 241 240 240 240 240 241 242 242 242 241 241 241 240 240 239 238 237 238 238 239 238 237 237 237 238 238 238 238 238 238 237 236 236 236 236 236 236 235 234 230 228 228 229 231 234 238 243 245 244 242 241 241
244 242 242 242 242 242 242 242 243 244 244 244 244 244 244 244 244 244 243 243 242 241 242 242 241 240 240 240 241 242 242 242 242 241 241 240 239 239 238 238 238 239 239 238 238 238 238 238 238 238 238 238 238 237 236 236 237 236 236 236 235 233 231 230 230 232 234 234 236 241 244 243 242 241
246 244 243 242 242 242 242 242 242 243 243 244 244 244 244 245 245 245 245 244 243 242 242 242 242 241 241 241 240 241 241 242 242 242 242 241 240 238 238 237 238 238 239 239 239 238 238 238 238 238 237 237 237 237 237 236 237 237 237 236 236 236 235 233 233 233 234 234 234 238 243 245 244 244
250 247 245 244 243 243 242 242 242 242 242 243 243 243 244 244 245 245 246 246 245 243 243 243 243 243 243 243 242 241 241 241 242 242 242 242 241 239 238 237 237 237 238 239 239 238 238 238 238 238 238 237 237 237 237 236 237 237 237 237 237 237 237 235 235 234 234 235 235 237 240 244 245 245
257 252 248 245 244 244 243 242 242 242 242 242 242 242 243 243 243 244 245 246 245 245 244 244 244 244 244 244 244 243 243 243 242 242 243 242 242 241 239 238 237 237 237 238 239 239 238 238 238 238 238 237 237 237 237 236 236 237 237 237 237 237 237 237 236 235 234 234 235 237 238 240 243 243
267 261 254 250 247 245 243 243 243 243 243 243 242 242 242 242 242 242 243 244 244 244 244 244 245 245 245 245 245 245 245 245 244 244 244 243 243 242 241 240 238 237 237 237 238 238 239 238 238 238 239 238 237 237 237 237 236 237 237 237 237 237 237 238 238 237 236 234 234 236 236 238 241 243
271 269 263 258 256 252 246 243 242 242 243 243 243 242 242 242 241 241 242 242 243 243 243 243 244 244 245 245 245 246 246 246 246 245 245 245 245 244 243 242 240 239 238 238 237 238 238 238 238 238 238 238 238 237 237 237 237 236 237 237 237 237 237 237 238 238 238 236 234 233 234 236 240 243
269 268 265 260 258 257 251 245 242 240 240 240 240 240 241 241 241 241 241 242 242 242 242 242 242 243 243 244 245 245 246 246 246 246 246 246 246 246 245 244 242 241 240 239 238 238 238 238 238 238 238 238 238 237 237 237 237 236 236 237 237 237 237 237 237 238 238 238 236 234 233 234 238 241
273 268 267 264 261 258 253 247 242 239 238 238 237 237 237 238 239 239 240 241 242 242 242 241 241 241 242 242 243 243 244 245 245 245 246 246 246 246 246 246 244 243 242 240 240 239 238 238 238 238 238 237 237 237 237 236 236 236 236 237 237 237 237 237 237 237 238 238 237 236 235 234 235 238
288 279 272 268 264 261 256 250 245 242 240 239 238 238 239 239 239 239 239 239 240 241 241 241 241 240 240 241 241 242 242 243 244 244 245 245 246 246 246 246 246 245 244 242 241 240 239 238 238 238 237 237 237 237 236 236 236 236 235 236 237 237 237 237 237 237 237 237 238 238 237 236 235 237
299 290 281 273 266 260 256 253 251 249 248 247 245 244 244 243 242 239 237 237 238 238 239 239 239 239 239 239 240 240 241 241 242 243 243 243 243 244 244 245 245 244 244 243 242 241 240 239 238 238 237 237 237 236 236 236 236 236 236 235 236 236 236 237 237 237 237 237 237 237 238 238 237 237
313 306 294 283 274 266 261 258 258 257 257 256 252 249 249 248 245 241 237 235 234 234 233 233 235 236 236 236 237 238 239 240 240 240 241 241 241 241 242 242 243 243 243 243 242 241 240 239 238 238 238 237 237 236 236 236 236 236 236 236 236 236 236 236 236 236 236 236 237 237 237 238 238 238
327 325 318 307 292 280 273 266 262 260 260 260 255 252 251 251 248 245 239 233 230 229 226 224 226 231 233 233 235 237 237 238 238 238 239 239 239 239 240 240 241 241 241 241 240 240 239 238 237 237 237 237 236 236 236 236 236 235 235 236 235 235 236 236 236 236 236 236 236 236 237 237 237 238
332 333 332 328 318 304 293 282 273 267 263 260 257 255 253 252 250 248 244 236 230 228 224 217 217 224 226 226 230 235 235 234 233 234 235 236 237 237 238 238 238 238 238 238 238 237 237 236 235 234 234 234 235 235 235 235 235 234 234 234 234 233 234 235 235 235 236 236 236 236 236 236 237 238
336 337 338 336 330 322 312 302 292 281 273 266 260 257 255 254 252 249 246 239 232 229 226 219 216 221 223 221 222 227 228 227 227 229 231 233 235 235 236 236 236 236 236 235 235 235 234 233 232 231 230 231 232 232 232 233 233 233 233 233 232 231 231 232 233 233 234 236 236 236 236 236 237 238
343 340 342 341 334 329 325 316 305 294 286 279 270 263 258 256 253 249 246 242 236 233 231 224 220 220 220 219 218 215 215 218 222 226 229 229 231 234 235 235 234 234 233 233 233 232 231 230 229 228 227 227 227 228 229 230 230 231 231 231 231 230 230 230 231 231 232 233 236 237 238 239 239 239
355 346 344 339 332 329 326 322 315 309 303 296 287 277 267 260 256 252 248 245 241 239 236 232 227 223 220 220 217 212 210 213 218 221 221 219 222 231 235 234 233 233 232 231 231 231 230 228 227 226 225 224 224 225 226 226 227 228 228 229 230 230 229 229 229 229 229 231 233 235 237 239 240 240
22 15 7 358 348 337 326 317 311 308 308 305 298 290 280 269 261 254 249 247 246 244 240 237 234 231 229 228 225 217 211 213 216 215 212 210 213 223 231 232 231 230 229 228 228 228 228 227 225 225 223 222 222 223 224 224 224 225 226 226 227 228 229 229 227 227 228 229 229 230 233 234 236 238
25 24 22 16 11 3 350 337 324 313 305 294 286 284 282 277 271 262 254 250 248 246 243 240 236 235 235 236 234 227 218 217 218 216 213 210 208 213 222 227 228 226 224 224 225 226 226 225 225 224 223 222 221 222 223 224 224 224 224 225 225 225 227 229 227 225 226 228 228 228 229 231 233 235
7 5 3 360 356 351 345 339 334 329 320 304 290 279 272 270 270 267 262 258 253 248 246 243 239 237 236 235 236 235 229 225 223 221 220 215 207 207 214 219 223 224 221 219 221 224 226 226 225 224 224 223 222 221 222 223 224 224 224 224 224 223 224 227 229 227 225 226 227 227 227 229 232 233
348 344 339 333 328 323 319 316 312 310 306 303 299 294 286 274 263 256 253 253 253 250 249 247 243 240 238 236 235 235 235 233 229 226 226 218 207 206 209 211 216 221 219 217 217 219 224 227 227 225 224 224 223 223 222 223 224 224 224 224 224 223 222 223 226 228 228 227 228 228 227 229 230 232
334 331 326 320 313 307 301 298 296 294 292 291 289 287 285 278 268 261 256 251 249 247 247 247 246 243 241 238 236 234 234 235 232 230 228 219 209 208 208 207 210 215 216 215 215 214 217 223 227 228 226 225 224 224 224 224 224 224 225 225 224 224 223 222 223 226 227 228 230 230 230 231 232 232
324 321 318 315 311 307 303 299 295 293 290 288 286 281 277 273 269 267 264 260 256 251 247 244 243 243 242 240 239 237 234 235 233 231 229 220 211 209 210 207 207 211 213 214 213 212 213 216 220 224 227 227 225 224 224 225 225 225 225 226 225 225 225 224 224 225 225 226 227 229 230 232 233 234
319 317 315 312 309 307 306 304 302 299 296 292 288 282 276 273 270 266 262 260 259 257 255 250 243 240 241 241 242 240 237 237 235 233 231 223 213 209 211 210 208 210 212 213 213 212 211 213 215 217 220 225 226 226 225 225 225 225 225 226 226 226 226 226 226 226 226 226 226 226 228 230 232 233
319 317 314 311 307 304 302 301 300 298 296 293 288 282 276 271 269 265 261 258 256 253 253 253 249 242 239 239 240 241 240 238 237 235 233 227 217 212 211 211 211 211 212 214 215 214 212 212 213 215 215 217 221 224 225 225 225 226 226 226 227 227 227 228 227 227 227 228 229 228 228 229 231 233
324 322 319 314 309 305 301 299 297 294 292 290 286 281 277 273 270 267 262 257 254 250 247 246 246 244 240 236 235 238 240 241 240 237 235 231 223 216 213 213 213 213 214 215 217 217 216 214 214 215 216 216 218 222 225 225 225 226 226 227 228 228 228 229 229 229 229 229 231 232 232 231 232 233
332 331 329 326 324 319 314 309 305 301 298 295 292 288 286 282 277 272 265 258 252 248 244 240 238 239 238 235 231 230 232 235 238 238 237 235 230 221 217 217 216 215 216 218 220 220 220 218 217 217 217 216 218 221 224 227 228 227 227 227 228 229 229 230 230 231 231 231 232 234 236 237 236 235
338 337 336 335 333 331 327 322 318 314 310 306 304 300 297 292 285 275 267 259 251 245 240 237 233 231 232 233 231 227 227 228 230 231 232 233 231 224 220 221 221 220 219 220 222 223 223 223 223 222 220 219 218 219 222 226 229 230 230 229 229 229 229 230 231 232 232 233 233 234 236 238 239 239
345 343 343 342 340 338 337 335 332 329 325 319 313 310 307 303 293 279 266 256 249 241 236 232 229 226 225 227 229 227 225 225 225 226 226 227 227 224 221 221 222 224 224 224 225 226 227 228 228 228 226 224 221 220 220 223 226 229 231 232 232 231 230 230 231 232 233 234 234 235 236 238 239 241
349 346 347 348 346 345 344 343 341 339 335 328 322 322 323 318 303 281 262 250 243 237 230 226 224 221 218 219 222 223 222 221 221 221 221 221 222 221 221 219 219 222 224 225 226 228 229 231 232 232 231 228 225 223 222 222 223 225 228 230 232 233 233 233 232 233 233 234 234 235 236 237 239 240
346 346 349 352 350 348 348 348 348 346 341 335 332 334 338 335 320 290 260 242 236 232 225 220 218 217 213 212 215 217 216 214 214 213 213 214 214 214 216 217 217 217 219 222 225 227 229 231 233 235 235 232 229 226 224 224 225 225 225 227 229 231 233 234 234 234 234 234 235 235 236 237 238 239
341 341 345 350 349 348 348 350 350 350 348 345 343 345 350 350 344 321 271 240 227 222 217 213 212 211 208 208 210 210 209 208 208 207 206 207 206 206 208 211 213 215 216 217 220 224 227 230 232 234 235 234 231 228 226 226 226 226 227 227 228 229 231 234 235 236 236 236 236 237 237 238 238 239
336 334 338 345 346 344 345 348 350 353 355 355 352 353 359 3 4 3 337 251 222 210 204 203 204 205 204 205 206 205 203 205 205 202 200 200 199 199 201 204 207 210 212 215 217 219 221 223 225 228 230 230 229 228 227 227 227 228 229 229 230 230 232 233 235 237 238 239 239 239 239 240 240 241
334 332 334 339 339 339 340 343 348 353 358 1 1 2 6 11 15 20 27 44 200 195 193 195 198 200 201 203 205 204 204 206 205 202 201 199 196 195 195 198 202 206 208 211 214 216 217 217 218 219 221 223 224 225 226 226 227 228 229 231 232 233 234 235 237 238 240 241 242 242 242 241 241 242
331 330 331 333 332 332 334 337 344 352 358 3 7 10 13 18 22 28 36 51 120 172 183 189 194 197 200 202 203 203 205 208 207 206 205 204 202 199 198 198 200 202 204 207 209 210 212 213 214 214 215 215 216 219 220 222 224 226 227 229 231 234 236 237 239 240 242 243 245 245 245 244 244 244
327 326 325 324 324 326 329 333 339 349 358 3 9 15 19 23 29 34 39 47 63 118 166 181 188 193 198 201 203 204 207 210 209 208 209 209 209 208 206 206 207 207 206 206 206 206 207 209 210 211 212 212 213 216 218 219 221 223 225 227 229 231 234 236 237 239 240 241 242 243 244 244 244 245
321 320 317 315 315 319 324 329 335 344 356 3 9 15 22 27 33 39 45 50 57 71 108 157 179 189 196 201 204 206 209 212 212 212 212 213 213 214 214 214 216 216 215 214 213 212 212 213 213 213 213 213 214 217 219 221 223 224 226 227 229 231 232 234 235 237 238 239 240 241 241 242 243 244
312 312 309 305 306 310 315 321 329 338 349 0 8 14 21 29 36 43 50 56 61 66 76 97 134 169 187 197 202 204 208 211 212 213 214 215 216 218 219 219 221 223 223 223 223 222 222 222 222 222 220 219 220 222 225 227 229 230 231 231 231 232 234 235 236 237 238 239 240 240 241 242 242 243
305 307 304 296 293 299 305 311 319 329 340 354 6 14 20 27 37 46 52 59 66 71 76 84 96 117 146 171 188 196 202 207 209 211 213 215 217 219 221 223 224 226 228 229 229 230 230 230 229 229 228 227 227 228 231 233 235 237 238 238 238 238 238 240 241 242 243 243 243 244 244 244 244 245
301 303 299 288 282 285 291 297 303 314 327 341 356 11 19 25 34 44 52 59 66 73 80 87 93 100 111 126 147 167 182 193 200 205 209 213 216 219 222 225 227 229 230 232 234 235 236 237 236 236 235 234 233 234 235 236 238 240 243 245 245 245 244 244 244 245 246 247 248 248 249 249 249 249
295 298 293 282 274 272 275 279 283 291 303 318 332 349 7 18 30 41 51 58 65 71 77 85 93 100 108 116 124 135 148 162 176 187 196 204 209 214 219 223 226 228 229 232 234 237 238 239 238 237 236 235 234 234 234 235 237 239 242 245 247 249 250 250 250 250 250 251 252 253 254 254 254 254
285 289 287 278 268 262 261 261 263 268 275 284 295 304 326 355 20 40 54 62 68 73 76 81 88 96 104 113 120 128 137 147 157 167 176 184 192 199 205 211 215 217 219 222 226 228 230 231 231 231 231 232 233 234 235 237 239 241 244 247 250 253 255 257 259 259 260 260 261 261 260 260 260 260
276 279 278 273 263 254 250 249 250 255 260 262 264 265 262 264 272 325 80 81 86 88 88 89 92 95 100 106 114 124 135 144 154 163 172 178 183 188 195 201 206 208 210 214 220 224 228 231 233 235 238 240 241 243 244 246 248 250 253 254 256 258 259 261 263 264 265 266 267 267 266 267 267 267
Height
5313 5319 5324 5328 5334 5342 5347 5351 5357 5363 5370 5376 5381 5385 5389 5395 5401 5407 5412 5419 5430 5442 5447 5452 5458 5463 5469 5476 5483 5488 5493 5500 5507 5513 5520 5528 5536 5542 5546 5550 5555 5561 5567 5573 5577 5581 5585 5589 5594 5600 5607 5613 5619 5624 5629 5633 5639 5644 5647 5651 5655 5658 5660 5661 5663 5664 5666 5668 5671 5674 5678 5682 5686 5690
5298 5303 5309 5313 5320 5327 5332 5337 5342 5348 5355 5361 5367 5372 5377 5382 5386 5392 5398 5406 5417 5427 5433 5439 5446 5453 5457 5461 5466 5472 5478 5487 5493 5498 5506 5514 5523 5531 5535 5539 5543 5549 5555 5561 5567 5571 5574 5579 5585 5590 5596 5603 5609 5615 5620 5625 5629 5634 5638 5642 5646 5650 5653 5655 5658 5659 5661 5663 5664 5666 5671 5676 5679 5683
5285 5290 5295 5299 5305 5312 5317 5322 5328 5333 5340 5346 5352 5358 5364 5368 5372 5378 5383 5390 5404 5415 5419 5425 5433 5440 5445 5448 5451 5456 5464 5474 5480 5486 5493 5502 5510 5518 5523 5527 5532 5537 5543 5549 5556 5561 5565 5569 5575 5581 5587 5593 5600 5605 5610 5615 5620 5625 5629 5634 5637 5641 5645 5648 5651 5653 5655 5657 5658 5659 5664 5669 5672 5676
5276 5280 5284 5288 5292 5297 5302 5307 5313 5319 5324 5331 5337 5343 5350 5355 5359 5364 5368 5375 5390 5402 5404 5409 5417 5424 5429 5434 5437 5443 5451 5459 5466 5472 5479 5488 5497 5504 5509 5516 5520 5525 5531 5538 5544 5550 5554 5559 5564 5571 5577 5583 5589 5595 5600 5605 5610 5615 5620 5625 5629 5633 5637 5641 5643 5645 5649 5652 5653 5654 5657 5662 5666 5669
5269 5272 5275 5278 5282 5285 5289 5295 5300 5305 5310 5315 5322 5328 5335 5341 5345 5349 5353 5360 5375 5388 5389 5392 5401 5408 5413 5418 5424 5430 5437 5445 5452 5458 5464 5472 5481 5488 5496 5503 5509 5513 5519 5525 5532 5537 5543 5548 5553 5559 5566 5572 5578 5584 5590 5595 5600 5605 5610 5615 5620 5625 5630 5634 5636 5638 5642 5645 5647 5648 5651 5655 5659 5663
5265 5267 5269 5271 5274 5276 5280 5285 5288 5292 5297 5301 5307 5315 5321 5327 5332 5336 5340 5346 5356 5368 5374 5377 5385 5393 5397 5401 5409 5417 5423 5431 5438 5442 5448 5456 5464 5473 5482 5489 5497 5502 5507 5512 5519 5524 5530 5536 5542 5548 5554 5561 5568 5574 5580 5585 5590 5595 5599 5605 5611 5615 5621 5625 5628 5630 5635 5638 5640 5642 5645 5648 5652 5656
5263 5264 5266 5267 5269 5271 5273 5277 5280 5283 5287 5290 5296 5303 5308 5312 5318 5322 5325 5330 5337 5348 5359 5364 5368 5376 5381 5385 5394 5402 5408 5416 5423 5427 5433 5441 5449 5457 5466 5475 5484 5491 5496 5501 5505 5511 5517 5524 5530 5536 5542 5550 5557 5563 5569 5575 5581 5585 5589 5595 5601 5606 5611 5615 5619 5623 5627 5630 5632 5635 5639 5641 5644 5648
5262 5263 5264 5264 5265 5267 5269 5271 5273 5275 5279 5282 5286 5291 5295 5299 5305 5309 5311 5315 5322 5330 5341 5348 5353 5359 5365 5370 5378 5386 5391 5398 5407 5412 5418 5426 5434 5441 5450 5460 5470 5478 5484 5488 5493 5498 5505 5512 5519 5525 5530 5538 5546 5553 5559 5565 5571 5576 5580 5584 5591 5596 5601 5606 5611 5615 5618 5622 5626 5629 5632 5634 5635 5639
5262 5262 5263 5263 5264 5265 5266 5268 5269 5271 5273 5276 5279 5282 5286 5289 5294 5297 5299 5303 5309 5315 5324 5333 5339 5344 5349 5355 5362 5370 5375 5382 5389 5395 5402 5410 5417 5425 5433 5444 5456 5465 5471 5475 5481 5488 5494 5500 5507 5514 5519 5526 5535 5542 5548 5554 5560 5566 5570 5574 5580 5586 5591 5596 5601 5606 5610 5614 5619 5622 5624 5626 5628 5630
5261 5261 5262 5262 5263 5264 5265 5266 5267 5269 5270 5272 5274 5277 5279 5282 5284 5287 5290 5293 5297 5303 5310 5320 5325 5330 5335 5341 5348 5356 5360 5365 5372 5378 5386 5394 5401 5408 5417 5427 5440 5450 5456 5462 5469 5476 5483 5489 5495 5502 5508 5515 5522 5530 5537 5542 5548 5555 5560 5564 5570 5576 5581 5587 5592 5596 5601 5605 5610 5613 5616 5619 5621 5622
5260 5261 5261 5261 5262 5263 5264 5265 5266 5267 5268 5269 5271 5273 5274 5276 5278 5280 5283 5286 5289 5293 5300 5307 5313 5318 5323 5328 5334 5341 5345 5348 5354 5362 5371 5379 5385 5393 5401 5411 5423 5433 5440 5448 5455 5463 5470 5476 5483 5489 5495 5502 5510 5517 5524 5530 5536 5543 5549 5554 5560 5565 5571 5577 5582 5587 5591 5596 5600 5604 5608 5611 5613 5615
5260 5260 5260 5261 5261 5262 5263 5264 5264 5265 5267 5268 5269 5270 5271 5272 5274 5276 5278 5280 5282 5286 5291 5297 5302 5307 5311 5315 5321 5327 5330 5334 5342 5351 5358 5365 5372 5379 5385 5394 5404 5413 5422 5431 5439 5447 5455 5462 5469 5476 5482 5489 5497 5504 5511 5518 5524 5531 5539 5544 5549 5555 5561 5566 5571 5576 5581 5586 5590 5594 5598 5601 5604 5607
5259 5259 5259 5260 5260 5261 5261 5262 5263 5264 5265 5266 5267 5268 5268 5269 5270 5272 5273 5275 5277 5281 5284 5289 5293 5296 5301 5306 5311 5314 5318 5324 5332 5339 5343 5349 5357 5363 5369 5376 5385 5394 5403 5413 5421 5430 5439 5447 5455 5462 5469 5478 5486 5492 5500 5507 5513 5521 5528 5534 5539 5545 5550 5555 5560 5566 5571 5575 5580 5584 5588 5591 5595 5599
5259 5259 5259 5259 5259 5260 5260 5261 5262 5262 5263 5264 5265 5266 5266 5267 5268 5269 5270 5271 5274 5276 5279 5282 5285 5288 5293 5298 5302 5305 5309 5315 5320 5325 5329 5336 5343 5349 5353 5360 5369 5379 5388 5396 5404 5414 5423 5431 5440 5447 5456 5465 5474 5480 5488 5495 5503 5511 5518 5524 5530 5534 5539 5545 5549 5554 5559 5564 5568 5573 5577 5581 5585 5588
5259 5259 5259 5259 5259 5259 5260 5260 5260 5261 5262 5262 5263 5264 5264 5265 5266 5266 5267 5269 5271 5272 5275 5278 5280 5283 5287 5291 5294 5297 5301 5305 5310 5314 5319 5325 5330 5335 5340 5348 5357 5366 5374 5381 5389 5398 5407 5415 5423 5432 5442 5451 5460 5468 5476 5483 5492 5500 5506 5513 5520 5524 5528 5534 5539 5543 5548 5552 5557 5562 5566 5570 5574 5578
5259 5259 5259 5259 5259 5259 5259 5259 5259 5260 5260 5261 5261 5262 5262 5263 5264 5265 5266 5267 5268 5270 5272 5275 5277 5279 5282 5286 5289 5292 5295 5298 5302 5306 5310 5314 5319 5324 5330 5337 5345 5353 5360 5366 5373 5383 5391 5399 5407 5417 5426 5436 5445 5454 5463 5470 5478 5486 5493 5500 5508 5513 5518 5523 5528 5533 5538 5542 5546 5551 5555 5559 5563 5568
5259 5259 5259 5259 5259 5258 5258 5258 5259 5259 5259 5259 5260 5260 5261 5262 5262 5263 5264 5265 5267 5268 5270 5273 5275 5277 5279 5281 5285 5289 5291 5293 5297 5300 5303 5307 5312 5316 5321 5327 5334 5340 5346 5352 5360 5369 5377 5384 5392 5402 5411 5421 5430 5440 5448 5455 5463 5471 5479 5487 5494 5501 5507 5513 5517 5523 5528 5532 5536 5540 5545 5549 5553 5557
5259 5259 5259 5259 5259 5258 5258 5258 5258 5258 5258 5259 5259 5259 5260 5260 5261 5262 5263 5264 5265 5266 5268 5270 5272 5274 5276 5278 5281 5284 5286 5289 5293 5296 5299 5303 5307 5310 5313 5318 5324 5329 5335 5342 5348 5356 5364 5371 5379 5388 5398 5407 5416 5425 5433 5442 5449 5457 5465 5473 5480 5487 5495 5501 5506 5512 5517 5522 5527 5531 5535 5539 5543 5547
5259 5259 5259 5258 5258 5258 5258 5258 5258 5258 5258 5258 5258 5258 5259 5259 5259 5260 5261 5262 5263 5264 5265 5267 5270 5271 5273 5275 5277 5280 5282 5285 5288 5291 5295 5299 5303 5306 5308 5312 5316 5322 5328 5334 5339 5346 5354 5361 5367 5376 5385 5394 5402 5410 5419 5427 5435 5442 5451 5459 5467 5474 5481 5488 5494 5501 5506 5512 5517 5521 5525 5529 5533 5537
5259 5259 5259 5258 5258 5258 5258 5257 5257 5257 5257 5257 5257 5257 5257 5258 5258 5258 5259 5260 5261 5262 5263 5265 5267 5269 5270 5272 5275 5277 5279 5281 5284 5288 5292 5296 5299 5303 5305 5308 5312 5317 5322 5327 5331 5338 5345 5351 5357 5365 5374 5382 5390 5397 5405 5413 5422 5430 5438 5446 5454 5462 5468 5475 5482 5489 5494 5500 5505 5510 5515 5520 5524 5528
5260 5260 5259 5259 5258 5258 5257 5257 5257 5256 5256 5256 5256 5256 5256 5256 5257 5257 5258 5258 5259 5260 5261 5263 5264 5266 5268 5270 5272 5274 5276 5278 5281 5285 5289 5292 5296 5300 5302 5305 5308 5312 5316 5320 5325 5330 5336 5342 5348 5355 5363 5370 5378 5385 5394 5402 5411 5419 5427 5435 5443 5450 5457 5463 5470 5477 5483 5488 5494 5499 5505 5509 5514 5518
5261 5260 5260 5259 5259 5258 5258 5257 5257 5256 5256 5256 5255 5255 5255 5255 5256 5256 5256 5257 5258 5258 5259 5261 5262 5263 5265 5267 5269 5272 5274 5276 5279 5283 5286 5289 5293 5297 5300 5303 5306 5308 5312 5316 5319 5324 5329 5334 5340 5347 5354 5360 5367 5375 5384 5393 5401 5409 5417 5424 5432 5439 5446 5452 5458 5465 5471 5477 5482 5488 5494 5498 5503 5507
5261 5260 5260 5259 5258 5258 5257 5257 5256 5256 5256 5255 5255 5255 5255 5255 5254 5254 5254 5255 5255 5256 5257 5258 5259 5261 5262 5264 5266 5268 5270 5273 5276 5279 5283 5286 5290 5293 5297 5300 5303 5306 5309 5312 5316 5321 5325 5329 5334 5340 5346 5352 5359 5367 5376 5384 5392 5399 5407 5414 5421 5429 5436 5442 5448 5454 5460 5466 5472 5477 5483 5487 5491 5495
5261 5260 5259 5259 5258 5257 5256 5256 5255 5255 5255 5254 5254 5254 5254 5253 5253 5253 5253 5253 5253 5253 5254 5256 5257 5258 5260 5261 5263 5265 5267 5269 5272 5275 5279 5282 5286 5289 5293 5296 5299 5302 5306 5309 5313 5317 5322 5325 5329 5334 5339 5345 5352 5360 5368 5376 5384 5391 5398 5405 5412 5418 5425 5431 5437 5443 5449 5455 5461 5466 5472 5476 5479 5484
5260 5259 5258 5257 5257 5256 5255 5255 5254 5254 5253 5253 5253 5252 5252 5251 5251 5251 5251 5251 5251 5251 5252 5253 5254 5256 5257 5258 5260 5262 5264 5266 5268 5271 5274 5278 5281 5285 5288 5292 5295 5299 5302 5306 5309 5314 5318 5322 5326 5329 5333 5338 5344 5351 5358 5366 5374 5381 5387 5394 5401 5408 5414 5420 5427 5433 5439 5444 5449 5455 5460 5465 5469 5474
5259 5258 5257 5256 5255 5254 5253 5253 5252 5252 5251 5251 5251 5250 5249 5249 5249 5249 5249 5249 5249 5250 5250 5250 5252 5253 5254 5256 5257 5259 5261 5263 5265 5267 5270 5273 5276 5279 5283 5286 5291 5295 5299 5303 5306 5310 5315 5319 5322 5325 5329 5333 5337 5343 5349 5356 5363 5370 5377 5384 5391 5397 5404 5411 5417 5422 5428 5433 5438 5443 5449 5453 5458 5463
5258 5257 5256 5255 5254 5253 5252 5251 5251 5250 5249 5249 5248 5248 5247 5246 5246 5246 5246 5246 5246 5247 5247 5248 5249 5250 5251 5253 5254 5256 5258 5260 5262 5264 5266 5269 5272 5275 5278 5283 5287 5291 5295 5299 5302 5306 5311 5315 5319 5322 5325 5328 5332 5336 5340 5346 5353 5360 5368 5375 5382 5388 5395 5401 5407 5412 5418 5423 5428 5432 5437 5442 5447 5452
5257 5256 5255 5254 5253 5252 5251 5250 5249 5248 5247 5247 5246 5245 5244 5243 5242 5242 5242 5242 5243 5243 5244 5245 5246 5247 5249 5250 5252 5254 5256 5258 5259 5261 5262 5265 5268 5271 5275 5280 5283 5287 5291 5294 5298 5302 5307 5311 5315 5318 5321 5324 5328 5332 5335 5340 5345 5352 5359 5366 5373 5380 5386 5391 5397 5402 5408 5413 5418 5422 5426 5430 5435 5440
5256 5255 5254 5253 5252 5251 5250 5249 5248 5247 5245 5244 5243 5242 5241 5240 5239 5238 5237 5237 5238 5239 5240 5242 5243 5245 5246 5247 5249 5251 5253 5254 5256 5257 5260 5262 5265 5268 5272 5276 5279 5283 5287 5290 5294 5298 5303 5308 5311 5313 5317 5321 5325 5329 5332 5336 5340 5345 5351 5358 5364 5370 5376 5382 5388 5393 5398 5403 5408 5411 5415 5418 5423 5428
5256 5255 5253 5252 5251 5250 5248 5247 5246 5245 5243 5242 5241 5239 5238 5236 5234 5232 5231 5231 5232 5233 5235 5237 5239 5241 5243 5245 5247 5248 5250 5251 5253 5255 5257 5259 5262 5265 5268 5272 5275 5279 5283 5287 5290 5294 5299 5303 5305 5308 5312 5317 5322 5325 5329 5332 5336 5340 5345 5350 5356 5361 5367 5373 5378 5382 5387 5392 5396 5401 5404 5407 5412 5416
5256 5254 5253 5251 5250 5248 5247 5246 5244 5243 5241 5239 5238 5236 5234 5231 5228 5226 5225 5225 5226 5228 5230 5232 5235 5237 5240 5242 5244 5246 5248 5249 5251 5253 5255 5257 5260 5262 5265 5268 5271 5275 5278 5282 5286 5290 5294 5297 5300 5303 5307 5312 5316 5321 5325 5328 5331 5335 5339 5343 5348 5353 5358 5363 5368 5372 5377 5381 5386 5391 5395 5398 5402 5405
5255 5254 5252 5250 5249 5247 5246 5244 5243 5241 5239 5237 5235 5234 5231 5227 5223 5221 5220 5220 5221 5223 5225 5228 5230 5233 5237 5240 5242 5244 5246 5248 5250 5252 5254 5256 5258 5260 5262 5265 5268 5270 5274 5278 5281 5285 5288 5291 5294 5298 5302 5306 5310 5315 5320 5323 5326 5329 5333 5336 5341 5346 5350 5355 5359 5363 5367 5372 5377 5381 5385 5389 5392 5396
5255 5253 5251 5250 5248 5247 5245 5244 5242 5240 5238 5236 5234 5232 5228 5224 5220 5217 5217 5217 5218 5219 5222 5224 5227 5230 5234 5237 5239 5242 5245 5247 5248 5250 5253 5255 5257 5259 5261 5263 5265 5268 5271 5273 5276 5279 5282 5285 5289 5292 5296 5299 5303 5308 5313 5317 5319 5323 5327 5331 5335 5339 5342 5345 5349 5353 5357 5363 5367 5371 5376 5380 5383 5386
5254 5252 5251 5249 5247 5246 5244 5243 5241 5239 5237 5235 5233 5230 5227 5222 5218 5216 5215 5215 5216 5217 5219 5222 5224 5228 5231 5234 5237 5240 5244 5246 5247 5249 5251 5253 5255 5257 5259 5262 5264 5266 5268 5271 5273 5275 5278 5281 5284 5287 5290 5293 5297 5302 5306 5310 5313 5317 5321 5325 5329 5332 5335 5338 5341 5344 5349 5354 5358 5363 5367 5371 5374 5377
5253 5252 5250 5248 5247 5245 5244 5242 5241 5239 5237 5235 5233 5230 5227 5223 5219 5216 5215 5215 5215 5216 5218 5220 5223 5226 5229 5232 5235 5239 5242 5244 5246 5248 5250 5252 5254 5256 5258 5260 5262 5264 5266 5268 5270 5273 5275 5277 5280 5282 5285 5288 5291 5295 5300 5303 5307 5312 5315 5319 5322 5326 5329 5332 5334 5338 5342 5347 5351 5356 5360 5363 5366 5368
5253 5251 5249 5247 5246 5245 5244 5242 5241 5239 5237 5235 5233 5230 5228 5225 5221 5218 5216 5216 5216 5216 5217 5219 5221 5224 5227 5231 5234 5238 5240 5242 5245 5247 5249 5251 5253 5255 5257 5259 5260 5262 5265 5266 5269 5271 5273 5275 5278 5280 5282 5285 5288 5291 5294 5298 5301 5306 5310 5313 5316 5319 5322 5325 5329 5333 5337 5340 5344 5348 5352 5355 5357 5358
5251 5250 5248 5247 5245 5244 5243 5242 5240 5239 5237 5235 5233 5231 5229 5227 5224 5221 5219 5218 5217 5218 5218 5219 5222 5224 5227 5230 5234 5237 5239 5241 5244 5246 5248 5251 5253 5254 5256 5258 5260 5261 5263 5265 5267 5269 5271 5274 5276 5278 5280 5282 5285 5288 5290 5293 5297 5300 5304 5307 5310 5312 5316 5319 5323 5327 5330 5332 5336 5339 5342 5345 5347 5348
5250 5249 5247 5246 5245 5244 5242 5241 5240 5239 5237 5235 5234 5232 5230 5228 5226 5224 5222 5220 5219 5219 5220 5221 5223 5225 5227 5230 5233 5235 5238 5240 5242 5245 5247 5249 5251 5253 5255 5257 5259 5260 5262 5264 5266 5268 5270 5272 5274 5276 5278 5281 5283 5285 5288 5290 5293 5296 5299 5302 5305 5308 5311 5314 5317 5319 5321 5324 5327 5329 5332 5335 5337 5338
5249 5248 5246 5245 5244 5243 5242 5241 5240 5239 5237 5236 5234 5233 5231 5230 5228 5226 5225 5223 5222 5222 5222 5223 5224 5226 5228 5230 5232 5234 5237 5239 5241 5244 5246 5248 5250 5252 5254 5256 5257 5259 5261 5263 5265 5267 5268 5270 5272 5274 5276 5279 5281 5283 5286 5288 5290 5293 5296 5298 5301 5303 5306 5308 5310 5312 5314 5316 5318 5320 5323 5325 5328 5329
5247 5246 5245 5244 5243 5242 5241 5240 5239 5238 5237 5236 5235 5234 5232 5231 5230 5229 5227 5226 5225 5225 5224 5225 5225 5227 5228 5230 5232 5234 5236 5238 5240 5242 5244 5246 5248 5250 5252 5254 5255 5257 5259 5261 5263 5265 5267 5268 5270 5272 5275 5277 5280 5282 5283 5286 5288 5290 5292 5294 5296 5298 5300 5302 5304 5306 5307 5309 5310 5313 5315 5317 5319 5320
5246 5245 5244 5243 5242 5242 5241 5240 5239 5238 5237 5236 5235 5234 5233 5232 5231 5230 5229 5228 5228 5227 5227 5227 5227 5228 5229 5230 5231 5233 5235 5236 5238 5241 5243 5245 5246 5248 5250 5252 5254 5255 5257 5259 5261 5263 5264 5266 5268 5270 5273 5275 5277 5279 5281 5283 5284 5285 5287 5289 5291 5293 5295 5297 5298 5299 5301 5302 5303 5305 5307 5308 5310 5311
5244 5243 5242 5242 5241 5240 5240 5239 5238 5238 5237 5236 5235 5235 5234 5233 5232 5231 5231 5230 5230 5229 5229 5229 5229 5229 5230 5231 5232 5233 5234 5236 5237 5239 5241 5243 5245 5246 5248 5250 5252 5254 5255 5257 5259 5260 5261 5263 5265 5267 5269 5272 5274 5276 5278 5280 5281 5281 5283 5284 5285 5287 5289 5291 5292 5293 5294 5295 5296 5298 5299 5300 5301 5303
5242 5241 5240 5240 5239 5239 5239 5238 5238 5237 5236 5236 5235 5235 5234 5234 5233 5233 5232 5232 5231 5231 5231 5231 5231 5231 5231 5232 5233 5233 5234 5236 5237 5238 5240 5242 5243 5245 5246 5248 5250 5251 5253 5255 5256 5258 5259 5260 5262 5264 5266 5269 5271 5273 5275 5276 5277 5278 5279 5280 5281 5282 5283 5284 5285 5286 5287 5289 5290 5291 5292 5292 5293 5294
5240 5239 5239 5238 5238 5237 5237 5237 5237 5236 5236 5235 5235 5235 5234 5234 5234 5233 5233 5233 5232 5232 5232 5232 5232 5233 5233 5233 5234 5235 5236 5237 5238 5239 5240 5241 5243 5244 5245 5247 5248 5250 5252 5253 5254 5256 5257 5258 5260 5262 5264 5266 5268 5269 5271 5272 5274 5275 5276 5277 5278 5278 5278 5279 5279 5280 5281 5282 5283 5284 5284 5284 5285 5285
5237 5237 5237 5236 5236 5236 5236 5236 5236 5236 5235 5235 5235 5234 5234 5234 5234 5233 5233 5233 5233 5233 5233 5233 5233 5234 5234 5235 5235 5236 5237 5237 5238 5239 5240 5242 5243 5244 5245 5246 5248 5249 5251 5252 5253 5254 5255 5257 5258 5260 5262 5263 5265 5266 5268 5269 5270 5271 5272 5273 5274 5274 5274 5274 5274 5274 5275 5276 5277 5276 5277 5277 5277 5278